EW0734 Weather Reports


time (UTC)temp
F
wind
direction
speed
knots
gust
knots
rain 1hr
in
rain 24hr
in
rain mn
in
humidity
%
barometer
mb
20260902074526 0 0.0 0.0 0.00 0.00 0.00
20260902073527 0 0.0 0.0 0.00 0.00 0.00
20260902073107 0 0.0 0.0 0.00 0.00 0.00
20260902072543 0 0.0 0.0 0.00 0.00 0.00
20260902072026 0 0.0 0.0 0.00 0.00 0.00
20260902071026 0 0.0 0.0 0.00 0.00 0.00
20260902070617 0 0.0 0.0 0.00 0.00 0.00 92
20260902070020 74 0.0 0.0 0.00 0.00 0.00 92 1015.1
20260902065028 75 0.0 0.0 0.00 0.00 0.00 92 1015.2
20260902064028 75 0.0 0.0 0.00 0.00 0.00 92 1015.0
20260902063048 75 0.0 0.0 0.00 0.00 0.00 92 1015.0
20260902062028 75 0.0 0.0 0.00 0.00 0.00 92 1014.9
20260902061028 76 0.0 0.0 0.00 0.00 0.00 91 1014.9
20260902060027 76 0.0 0.0 0.00 0.00 0.00 91 1014.8
20260902055028 76 0.0 0.0 0.00 0.00 0.00 91 1014.8
20260902054028 76 0.0 0.0 0.00 0.00 0.00 92 1014.6
20260902053027 76 0.0 0.0 0.00 0.00 0.00 92 1014.6
20260902052028 76 0.0 0.0 0.00 0.00 0.00 92 1014.7
20260902051108 77 0.0 0.0 0.00 0.00 0.00 92 1014.7
20260902050028 77 0.0 0.0 0.00 0.00 0.00 92 1014.8
20260902045027 77 0.0 0.0 0.00 0.00 0.00 92 1014.8
20260902044028 77 0.0 0.0 0.00 0.00 0.00 92 1014.9
20260902043107 77 0.0 0.0 0.00 0.00 0.00 92 1014.8
20260902042028 77 0.0 0.0 0.00 0.00 0.00 92 1014.8
20260902041048 77 0.0 0.0 0.00 0.00 0.00 92 1014.6
20260902040028 77 0.0 0.0 0.00 0.00 0.00 92 1014.6
20260902035027 77 0.0 0.0 0.00 0.00 0.00 92 1014.5
20260902034027 78 0.0 0.0 0.00 0.00 0.00 91 1014.3
20260902033028 78 0.0 0.0 0.00 0.00 0.00 91 1014.3
20260902032028 78 0.0 0.0 0.00 0.00 0.00 91 1014.2
20260902031028 78 0.0 0.0 0.00 0.00 0.00 91 1014.1
20260902030027 78 0.0 0.0 0.00 0.00 0.00 90 1014.1
20260902025027 78 0.0 0.0 0.00 0.00 0.00 90 1014.2
20260902024028 78 0.0 0.0 0.00 0.00 0.00 90 1014.3
20260902023028 78 0.0 0.0 0.00 0.00 0.00 89 1014.2
20260902022028 79 0.0 0.0 0.00 0.00 0.00 89 1014.0
20260902021027 79 0.0 0.0 0.00 0.00 0.00 89 1014.0
20260902020048 79 0.0 0.0 0.00 0.00 0.00 88 1014.0
20260902015048 79 0.0 0.0 0.00 0.00 0.00 88 1014.0
20260902014028 80 0.0 0.0 0.00 0.00 0.00 87 1013.7
20260902013027 80 0.0 0.0 0.00 0.00 0.00 87 1013.6
20260902012048 80 0.0 0.0 0.00 0.00 0.00 86 1013.4
20260902011028 80 0.0 0.0 0.00 0.00 0.00 86 1013.3
20260902010028 80 0.0 0.0 0.00 0.00 0.00 85 1013.1
20260902005027 81 0.0 0.0 0.00 0.00 0.00 84 1012.9
20260902004028 81 0.0 0.0 0.00 0.00 0.00 83 1012.7
20260902003028 81 0.0 0.0 0.00 0.00 0.00 82 1012.6
20260902002028 82 0.0 0.0 0.00 0.00 0.00 81 1012.5
20260902001027 83 0.0 0.0 0.00 0.00 0.00 79 1012.5
20260902000028 83 0.0 0.0 0.00 0.00 0.00 78 1012.5
20260901235028 84 0.0 0.0 0.00 0.00 0.00 76 1012.6
20260901234029 84 0.0 0.0 0.00 0.00 0.00 76 1012.5
20260901233028 85 0.0 0.0 0.00 0.00 0.00 74 1012.6
20260901232047 87 0.0 0.0 0.00 0.00 0.00 71 1012.5
20260901231027 88 0.0 0.0 0.00 0.00 0.00 69 1012.6
20260901230027 89 0.0 0.0 0.00 0.00 0.00 67 1012.7
20260901225028 90 0.0 0.0 0.00 0.00 0.00 64 1012.8
20260901224028 90 0.0 0.0 0.00 0.00 0.00 63 1012.9
20260901223027 90 0.0 0.0 0.00 0.00 0.00 63 1013.0
20260901222027 91 0.0 0.0 0.00 0.00 0.00 63 1013.0
20260901221027 91 0.0 0.0 0.00 0.00 0.00 63 1013.1
20260901220030 92 0.0 0.0 0.00 0.00 0.00 62 1013.1
20260901215027 92 0.0 0.0 0.00 0.00 0.00 62 1013.1
20260901214027 92 0.0 0.0 0.00 0.00 0.00 61 1013.1
20260901213028 93 0.0 0.0 0.00 0.00 0.00 62 1013.1
20260901212027 93 0.0 0.0 0.00 0.00 0.00 63 1013.1
20260901211027 92 0.0 0.0 0.00 0.00 0.00 65 1013.1
20260901210027 92 0.0 0.0 0.00 0.00 0.00 63 1013.2
20260901205027 93 0.0 0.0 0.00 0.00 0.00 62 1013.2
20260901204048 94 0.0 0.0 0.00 0.00 0.00 61 1013.3
20260901203030 94 0.0 0.0 0.00 0.00 0.00 60 1013.4
20260901202028 95 0.0 0.0 0.00 0.00 0.00 60 1013.6
20260901201029 94 0.0 0.0 0.00 0.00 0.00 60 1013.7
20260901200029 94 0.0 0.0 0.00 0.00 0.00 59 1013.7
20260901195029 94 0.0 0.0 0.00 0.00 0.00 62 1013.8
20260901194029 95 0.0 0.0 0.00 0.00 0.00 63 1014.0
20260901193052 95 0.0 0.0 0.00 0.00 0.00 59 1014.2
20260901192030 95 0.0 0.0 0.00 0.00 0.00 58 1014.3
20260901191029 95 0.0 0.0 0.00 0.00 0.00 59 1014.3
20260901190029 95 0.0 0.0 0.00 0.00 0.00 60 1014.3
20260901185029 95 0.0 0.0 0.00 0.00 0.00 60 1014.3
20260901184049 95 0.0 0.0 0.00 0.00 0.00 60 1014.3
20260901183029 95 0.0 0.0 0.00 0.00 0.00 61 1014.3
20260901182029 95 0.0 0.0 0.00 0.00 0.00 61 1014.3
20260901181029 95 0.0 0.0 0.00 0.00 0.00 59 1014.5
20260901180029 95 0.0 0.0 0.00 0.00 0.00 61 1014.4
20260901175030 94 0.0 0.0 0.00 0.00 0.00 61 1014.4
20260901174028 94 0.0 0.0 0.00 0.00 0.00 60 1014.5
20260901173049 95 0.0 0.0 0.00 0.00 0.00 62 1014.6
20260901172030 95 0.0 0.0 0.00 0.00 0.00 63 1014.5
20260901171029 95 0.0 0.0 0.00 0.00 0.00 59 1014.4
20260901170029 94 0.0 0.0 0.00 0.00 0.00 63 1014.5
20260901165110 94 0.0 0.0 0.00 0.00 0.00 64 1014.7
20260901164029 94 0.0 0.0 0.00 0.00 0.00 62 1014.8
20260901163029 94 0.0 0.0 0.00 0.00 0.00 63 1015.1
20260901162029 93 0.0 0.0 0.00 0.00 0.00 64 1015.1
20260901161110 92 0.0 0.0 0.00 0.00 0.00 67 1015.2
20260901160029 93 0.0 0.0 0.00 0.00 0.00 61 1015.3
20260901155049 92 0.0 0.0 0.00 0.00 0.00 68 1015.3
20260901154029 91 0.0 0.0 0.00 0.00 0.00 65 1015.5
20260901153029 90 0.0 0.0 0.00 0.00 0.00 74 1015.5
20260901152134 90 0.0 0.0 0.00 0.00 0.00 73 1015.8
20260901151029 89 0.0 0.0 0.00 0.00 0.00 73 1015.9
20260901150028 90 0.0 0.0 0.00 0.00 0.00 69 1015.9
20260901145029 89 0.0 0.0 0.00 0.00 0.00 73 1015.9
20260901144028 89 0.0 0.0 0.00 0.00 0.00 75 1016.0
20260901143029 88 0.0 0.0 0.00 0.00 0.00 74 1016.0
20260901142029 88 0.0 0.0 0.00 0.00 0.00 76 1015.9
20260901141029 86 0.0 0.0 0.00 0.00 0.00 81 1015.8
20260901140049 84 0.0 0.0 0.00 0.00 0.00 83 1015.8
20260901135029 82 0.0 0.0 0.00 0.00 0.00 86 1015.9
20260901134030 80 0.0 0.0 0.00 0.00 0.00 90 1016.0
20260901133028 79 0.0 0.0 0.00 0.00 0.00 92 1016.2
20260901132029 78 0.0 0.0 0.00 0.00 0.00 91 1016.2
20260901131029 77 0.0 0.0 0.00 0.00 0.00 90 1016.2
20260901130029 77 0.0 0.0 0.00 0.00 0.00 88 1016.2
20260901125109 77 0.0 0.0 0.00 0.00 0.00 83 1016.2
20260901124028 76 0.0 0.0 0.00 0.00 0.00 75 1016.3
20260901123028 76 0.0 0.0 0.00 0.00 0.00 67 1016.1
20260901122048 75 0.0 0.0 0.00 0.00 0.00 56 1016.1
20260901121028 74 0.0 0.0 0.00 0.00 0.00 51 1016.1
20260901120029 74 0.0 0.0 0.00 0.00 0.00 48 1015.9
20260901115028 74 0.0 0.0 0.00 0.00 0.00 48 1015.9
20260901114028 73 0.0 0.0 0.00 0.00 0.00 50 1015.8
20260901113046 0 0.0 0.0 0.00 0.00 0.00
20260901112004 0 0.0 0.0 0.00 0.00 0.00
20260901111618 0 0.0 0.0 0.00 0.00 0.00
20260901111143 0 0.0 0.0 0.00 0.00 0.00
20260901110527 0 0.0 0.0 0.00 0.00 0.00
20260901105506 0 0.0 0.0 0.00 0.00 0.00
20260901105100 0 0.0 0.0 0.00 0.00 0.00
20260901104027 0 0.0 0.0 0.00 0.00 0.00
20260901103030 0 0.0 0.0 0.00 0.00 0.00
20260901102603 0 0.0 0.0 0.00 0.00 0.00
20260901102033 0 0.0 0.0 0.00 0.00 0.00
20260901101547 0 0.0 0.0 0.00 0.00 0.00
20260901100528 0 0.0 0.0 0.00 0.00 0.00
20260901100121 0 0.0 0.0 0.00 0.00 0.00
20260901095531 0 0.0 0.0 0.00 0.00 0.00
20260901095027 0 0.0 0.0 0.00 0.00 0.00
20260901094027 0 0.0 0.0 0.00 0.00 0.00
20260901093558 0 0.0 0.0 0.00 0.00 0.00
20260901093055 0 0.0 0.0 0.00 0.00 0.00
20260901092526 0 0.0 0.0 0.00 0.00 0.00
20260901091506 0 0.0 0.0 0.00 0.00 0.00
20260901091101 0 0.0 0.0 0.00 0.00 0.00
20260901090526 0 0.0 0.0 0.00 0.00 0.00
20260901090027 0 0.0 0.0 0.00 0.00 0.00
20260901085028 0 0.0 0.0 0.00 0.00 0.00
20260901084547 0 0.0 0.0 0.00 0.00 0.00
20260901083527 0 0.0 0.0 0.00 0.00 0.00
20260901082506 0 0.0 0.0 0.00 0.00 0.00
20260901082059 0 0.0 0.0 0.00 0.00 0.00
20260901081522 0 0.0 0.0 0.00 0.00 0.00
20260901081028 0 0.0 0.0 0.00 0.00 0.00
20260901080011 0 0.0 0.0 0.00 0.00 0.00
20260901075607 0 0.0 0.0 0.00 0.00 0.00